Home > Weather > Fayetteville > Past weeks

Flag for USA Past Weather in Fayetteville, North Carolina, USA — Yesterday and Last 2 Weeks

Now
82 °F

Clear.


Feels Like: 88 °F
Forecast: 79 / 98 °F
Wind: 5 mph from Southwest

Location: Fayetteville Regional Airport

Current Time: Jul 28, 2016 at 2:54:54 AM

Latest Report: Jul 28, 2016 at 1:53 AM


Visibility: 10 mi

Pressure: 29.91 "Hg

Humidity: 77%

Dew Point: 74 °F

Location of FayettevilleLocation

Past Weather in Fayetteville — Graph

°F

Fayetteville Temperature Yesterday

Maximum temperature yesterday: 100 °F (at 1:53 PM)
Minimum temperature yesterday: 80 °F (at 6:53 AM)
Average temperature yesterday: 89 °F

High & Low Weather Summary for the Past Weeks

 TemperatureHumidityPressure
High100 °F (Jul 27, 1:53 PM)94% (Jul 16, 12:53 AM)30.22 "Hg (Jul 16, 12:53 AM)
Low70 °F (Jul 20, 5:53 AM)32% (Jul 21, 3:53 PM)29.88 "Hg (Jul 27, 6:53 PM)
Average83 °F70%30.04 "Hg
* Reported Jul 13 12:53 AM — Jul 28 12:53 AM, Fayetteville, Weather by CustomWeather, © 2016

Note: Actual official high and low records may vary slightly from our data, if they occured in-between our weather recording intervals... More about our weather records

Advertising

Fayetteville Weather History for the Previous 24 Hours

Scroll right to see more
 ConditionsComfort  
Time TempWeatherWind HumidityBarometerVisibility
12:53 AM
Thu, Jul 28
84 °FClear.7 mph72%29.92 "Hg10 mi
11:53 PM
Wed, Jul 27
85 °FClear.8 mph70%29.90 "Hg10 mi
10:53 PM86 °FClear.9 mph67%29.92 "Hg10 mi
9:53 PM88 °FClear.5 mph63%29.91 "Hg10 mi
8:53 PM89 °FSunny.7 mph61%29.90 "Hg10 mi
7:53 PM93 °FSunny.8 mph49%29.89 "Hg10 mi
6:53 PM96 °FSunny.9 mph43%29.88 "Hg10 mi
5:53 PM98 °FScattered clouds.16 mph40%29.89 "Hg10 mi
4:53 PM99 °FSunny.14 mph37%29.88 "Hg10 mi
3:53 PM100 °FPassing clouds.10 mph38%29.90 "Hg10 mi
2:53 PM100 °FPassing clouds.13 mph38%29.91 "Hg10 mi
1:53 PM100 °FSunny.12 mph41%29.93 "Hg10 mi
12:53 PM98 °FSunny.12 mph40%29.95 "Hg10 mi
11:53 AM96 °FSunny.16 mph43%29.96 "Hg10 mi
10:53 AM92 °FSunny.10 mph51%29.96 "Hg10 mi
9:53 AM88 °FSunny.10 mph59%29.96 "Hg10 mi
8:53 AM86 °FSunny.9 mph63%29.97 "Hg10 mi
7:53 AM82 °FSunny.9 mph74%29.96 "Hg10 mi
6:53 AM80 °FClear.7 mph79%29.95 "Hg10 mi
5:53 AM81 °FClear.9 mph74%29.94 "Hg10 mi
4:53 AM81 °FClear.10 mph77%29.93 "Hg10 mi
3:53 AM81 °FPassing clouds.8 mph79%29.93 "Hg10 mi
2:53 AM82 °FPassing clouds.9 mph79%29.94 "Hg10 mi
Weather by CustomWeather, © 2016

See weather overviewHow to use our weather pages